カタログに戻る

ATLAS 5 CENTAUR DEB

運用中HEO
NORAD 43999·DEBRIS·🇺🇸 United States

打ち上げ Sep 17, 2014 から Cape Canaveral Space Force Station

Loading…

次のパス (今後24時間)

TLE

最新Source: Space-Track

元期: Sep 7, 2026, 16:21 UTC

1 43999U 14055BE  26250.68181087 -.00000109  00000-0  00000-0 0  9994
2 43999  20.1143 142.8026 4697952 167.8882 209.2187  1.85335916 54236

AllMySatでATLAS 5 CENTAUR DEBをリアルタイム追跡

Download on the App Store